{"data":{"norad_id":43276,"epoch":"2026-05-25T04:08:17.908800Z","epoch_age_seconds":60074,"freshness":"FRESH","line1":"1 43276U 18034B   26145.17242950 -.00000169  00000+0 -10634-3 0  9990","line2":"2 43276  63.3930 150.5053 0273420   7.2775 353.2096 13.45454170399129","mean_motion":13.4545417,"eccentricity":0.027342,"inclination_deg":63.393,"raan_deg":150.5053,"arg_perigee_deg":7.2775,"mean_anomaly_deg":353.2096,"bstar":-0.00010634,"rev_number":39912,"period_min":107.02705689336,"perigee_km":884.86335057117,"apogee_km":1293.197946257,"semimajor_km":7467.1676484141,"source":"CELESTRAK","updated_at":"2026-05-25T13:37:55.824108Z"}}